Find GPS III SV05

NORAD ID: 48859 Int'l Des: 2021-054 Owner: SMC Country: US Constellation: GPS operational
MEOCIRCULARGNSS

リアルタイム位置

3D地球を読み込み中...

GPS III SV05について

説明を読み込み中...

次回通過

Passes for default location (London). Set your location on the main map for personalized predictions.

高度履歴

Loading altitude history...

軌道要素

1 48859U 21054A 26122.14042208 -.00000089 00000-0 00000+0 0 9997
2 48859 55.1949 334.3106 0024068 229.5793 129.6864 2.00572268 35822
Epoch: May 2, 2026 • Age: 10 hours

現在のステータス

高度 20173.0 km
速度 3.88 km/s
衛星直下点 -47.36°S, 133.7°W
打ち上げ日 Jun 17, 2021
運用期間 4.8 years
タイプ navigation

技術仕様

分類 Payload
質量 4400.00 kg
乾燥質量 2160.00 kg
総質量 4400.00 kg
長さ 3.40 m
直径 1.80 m
スパン 14.00 m
形状 Box + 2 pan
製造者 LMSSD
バスタイプ A2100
フェーズステータス In Orbit
所有者/国 SMC/US

Most Searched